User: anonymous   Login
Location: Unspecified
(0.0000°N, 0.0000°E)
Time: 05:54:54
(UTC+00:00)
Language:

COSMOS 2454 - Orbit

View from above orbital plane
View from above orbital plane
View from above satellite
View from above satellite

Ground track
Ground track

The orbit data is extracted from the following two-line orbital elements,

1 35635U 09039A   18344.79227011  .00000020  00000-0  37186-5 0  9994
2 35635  82.9543 308.1331 0018675 188.7624 171.3219 13.89633557476277
Epoch (UTC): 10 December 2018 19:00:52
Eccentricity: 0.0018675
inclination: 82.9543°
perigee height: 916 km
apogee height: 943 km
right ascension of ascending node: 308.1331°
argument of perigee: 188.7624°
revolutions per day: 13.89633557
mean anomaly at epoch: 171.3219°
orbit number at epoch: 47627

The dashed part of the orbit path shows where the satellite is in the earth's shadow,  

DLR